Stations météo

réclame
Mon MeteoGroup
San Sebastian/Fuenterrabia, Espagne (8029): Température de l'air & dewpoint: 17.04.2018 19:00:00 - 23.04.2018 19:00:00 (CEST)San Sebastian/Fuenterrabia, Espagne (8029): Vitesse du vent: 17.04.2018 19:00:00 - 23.04.2018 19:00:00 (CEST)San Sebastian/Fuenterrabia, Espagne (8029): Direction du vent: 17.04.2018 19:00:00 - 23.04.2018 19:00:00 (CEST)San Sebastian/Fuenterrabia, Espagne (8029): reduced air pressure: 17.04.2018 19:00:00 - 23.04.2018 19:00:00 (CEST)San Sebastian/Fuenterrabia, Espagne (8029): visibility: 17.04.2018 19:00:00 - 23.04.2018 19:00:00 (CEST)
Date & Time tt [°C] td [°C] ff [km/h] ff [knt] dd ppp [hPa] vv [km]
23.04.2018 19:00:00 - - - - - - -
23.04.2018 18:00:00 16,0 13,0 9 5 NNE - 10
23.04.2018 17:00:00 17,0 13,5 11 6 N 1021,2 12
23.04.2018 16:00:00 17,0 14,0 9 5 NNE - 10
23.04.2018 15:00:00 17,0 14,0 8 4 NNE - 10
23.04.2018 14:00:00 16,4 14,2 8 4 NNE 1022,2 9
23.04.2018 13:00:00 16,0 14,0 8 4 NNE - 9
23.04.2018 12:00:00 15,0 14,0 5 3 N - 8
23.04.2018 11:00:00 15,0 14,0 2 1 NE 1022,6 5
23.04.2018 10:00:00 15,0 14,0 2 1 - - 3,0
23.04.2018 09:00:00 15,0 14,0 5 3 NNE - 6
23.04.2018 08:00:00 15,4 14,3 4 2 N 1020,7 5
23.04.2018 07:00:00 15,0 14,0 2 1 E - 5
23.04.2018 06:00:00 15,0 14,0 0 0 N - 5
23.04.2018 05:00:00 14,0 14,0 0 0 N - 5
23.04.2018 04:00:00 14,0 14,0 2 1 - - 4,0
23.04.2018 03:00:00 14,0 14,0 2 1 - - 6
23.04.2018 02:00:00 15,0 14,0 2 1 WNW - 7
23.04.2018 01:00:00 16,0 15,0 2 1 SSW - 7
23.04.2018 00:00:00 16,0 15,0 2 1 - - 8
22.04.2018 23:00:00 16,0 14,0 4 2 - - 8
22.04.2018 22:00:00 17,0 14,0 9 5 W - 10
22.04.2018 21:00:00 17,0 14,0 13 7 W - 10
22.04.2018 20:00:00 18,2 13,3 8 4 N 1015,9 15
22.04.2018 19:00:00 18,0 13,0 8 4 N - 10
22.04.2018 18:00:00 20,0 13,0 5 3 NNE - 10
22.04.2018 17:00:00 18,8 11,9 9 5 NE 1016,2 15
22.04.2018 16:00:00 19,0 13,0 15 8 NE - 10
22.04.2018 15:00:00 20,0 12,0 11 6 NNW - 10
22.04.2018 14:00:00 20,9 11,3 13 7 NW 1017,0 15
22.04.2018 13:00:00 20,0 11,0 21 11 WNW - 10
22.04.2018 12:00:00 21,0 11,0 11 6 NW - 10
22.04.2018 11:00:00 20,7 10,2 8 4 SSW 1017,1 15
22.04.2018 10:00:00 19,0 12,0 9 5 SSW - 10
22.04.2018 09:00:00 20,0 11,0 8 4 S - 10
22.04.2018 08:00:00 18,6 9,4 2 1 - 1015,7 10
22.04.2018 07:00:00 20,0 8,0 11 6 SSW - 10
22.04.2018 06:00:00 21,0 9,0 8 4 SSW - 10
22.04.2018 05:00:00 21,0 9,0 11 6 S - 10
22.04.2018 04:00:00 20,0 10,0 9 5 S - 10
22.04.2018 03:00:00 23,0 9,0 11 6 SW - 10
22.04.2018 02:00:00 21,0 10,0 8 4 SSW - 10
22.04.2018 01:00:00 20,0 10,0 5 3 SSW - 10
22.04.2018 00:00:00 19,0 10,0 4 2 - - 10
21.04.2018 23:00:00 18,0 10,0 8 4 S - 10
21.04.2018 22:00:00 19,0 12,0 5 3 SSW - 9
21.04.2018 21:00:00 21,0 11,0 2 1 - - 10
21.04.2018 20:00:00 25,4 6,1 11 6 SSW 1015,0 25
21.04.2018 19:00:00 25,0 9,0 9 5 SSE - 10
21.04.2018 18:00:00 26,0 7,0 16 9 S - 10
21.04.2018 17:00:00 27,8 4,2 24 13 S 1015,2 30
21.04.2018 16:00:00 27,0 8,0 22 12 SSE - 10
21.04.2018 15:00:00 27,0 9,0 22 12 SSE - 10
21.04.2018 14:00:00 26,5 6,0 21 11 SE 1016,8 20
21.04.2018 13:00:00 26,0 9,0 15 8 SSE - 10
21.04.2018 12:00:00 25,0 9,0 21 11 SSE - 10
21.04.2018 11:00:00 23,8 6,1 15 8 SE 1018,0 10
21.04.2018 10:00:00 22,0 9,0 9 5 E - 10
21.04.2018 09:00:00 20,0 9,0 11 6 ENE - 10
21.04.2018 08:00:00 18,3 7,4 8 4 N 1018,0 10
21.04.2018 07:00:00 19,0 7,0 8 4 WSW - 10
21.04.2018 06:00:00 19,0 7,0 15 8 SSW - 10
21.04.2018 05:00:00 18,0 8,0 15 8 SSW - 10
21.04.2018 04:00:00 18,0 9,0 9 5 S - 10
21.04.2018 03:00:00 17,0 10,0 8 4 SW - 10
21.04.2018 02:00:00 15,0 12,0 4 2 - - 10
21.04.2018 01:00:00 17,0 13,0 8 4 SSW - 10
21.04.2018 00:00:00 17,0 13,0 4 2 - - 10
20.04.2018 23:00:00 18,0 13,0 5 3 S - 10
20.04.2018 22:00:00 21,0 13,0 2 1 - - 10
20.04.2018 21:00:00 20,0 12,0 5 3 N - 10
20.04.2018 20:00:00 23,4 10,8 8 4 N 1019,0 18
20.04.2018 19:00:00 23,0 11,0 5 3 N - 10
20.04.2018 18:00:00 22,0 11,0 8 4 N - 10
20.04.2018 17:00:00 21,8 11,8 9 5 N 1019,5 18
20.04.2018 16:00:00 21,0 13,0 9 5 NNE - 10
20.04.2018 15:00:00 22,0 14,0 11 6 NE - 10
20.04.2018 14:00:00 21,4 12,5 13 7 NNE 1020,7 18
20.04.2018 13:00:00 21,0 13,0 13 7 NNE - 10
20.04.2018 12:00:00 21,0 14,0 11 6 NE - 10
20.04.2018 11:00:00 21,8 10,9 8 4 NNE 1021,4 18
20.04.2018 10:00:00 20,0 12,0 4 2 - - 10
20.04.2018 09:00:00 18,0 13,0 2 1 - - 10
20.04.2018 08:00:00 17,2 10,8 9 5 N 1020,8 20
20.04.2018 07:00:00 18,0 11,0 8 4 N - 10
20.04.2018 06:00:00 21,0 10,0 11 6 SW - 10
20.04.2018 05:00:00 21,0 10,0 8 4 WSW - 10
20.04.2018 04:00:00 21,0 9,0 5 3 WSW - 10
20.04.2018 03:00:00 20,0 11,0 4 2 - - 10
20.04.2018 02:00:00 18,0 12,0 4 2 - - 10
20.04.2018 01:00:00 17,0 12,0 2 1 - - 10
20.04.2018 00:00:00 17,0 12,0 4 2 - - 10
19.04.2018 23:00:00 18,0 12,0 5 3 SSW - 10
19.04.2018 22:00:00 18,0 13,0 2 1 - - 10
19.04.2018 21:00:00 22,0 12,0 2 1 - - 10
19.04.2018 20:00:00 23,4 10,5 8 4 N 1020,2 30
19.04.2018 19:00:00 23,0 11,0 8 4 N - 10
19.04.2018 18:00:00 21,0 12,0 11 6 N - 10
19.04.2018 17:00:00 23,6 11,0 9 5 N 1020,1 30
19.04.2018 16:00:00 22,0 11,0 9 5 N - 10
19.04.2018 15:00:00 22,0 13,0 15 8 NNE - 10
19.04.2018 14:00:00 21,3 11,1 16 9 NE 1021,4 10
19.04.2018 13:00:00 19,0 13,0 18 10 NNE - 10
19.04.2018 12:00:00 23,0 14,0 13 7 ENE - 10
19.04.2018 11:00:00 25,9 4,9 22 12 S 1021,6 30
19.04.2018 10:00:00 25,0 7,0 15 8 S - 10
19.04.2018 09:00:00 24,0 6,0 9 5 - - 10
19.04.2018 08:00:00 22,3 5,7 11 6 SSW 1021,2 10
19.04.2018 07:00:00 22,0 7,0 11 6 SW - 10
19.04.2018 06:00:00 23,0 7,0 13 7 SSW - 10
19.04.2018 05:00:00 23,0 7,0 13 7 SW - 10
19.04.2018 04:00:00 23,0 8,0 11 6 SSW - 10
19.04.2018 03:00:00 23,0 7,0 9 5 SW - 10
19.04.2018 02:00:00 22,0 8,0 4 2 - - 10
19.04.2018 01:00:00 22,0 9,0 5 3 - - 10
19.04.2018 00:00:00 25,0 7,0 8 4 SSW - 10
18.04.2018 23:00:00 22,0 8,0 4 2 - - 10
18.04.2018 22:00:00 24,0 6,0 8 4 WSW - 10
18.04.2018 21:00:00 25,0 8,0 9 5 SSW - 10
18.04.2018 20:00:00 27,4 4,5 11 6 S 1020,0 10
18.04.2018 19:00:00 28,0 8,0 18 10 SSE - 10
18.04.2018 18:00:00 28,0 8,0 18 10 SSE - 10
18.04.2018 17:00:00 29,6 6,9 21 11 SSE 1019,9 30
18.04.2018 16:00:00 29,0 11,0 21 11 S - 10
18.04.2018 15:00:00 29,0 11,0 18 10 SSE - 10
18.04.2018 14:00:00 28,1 7,9 28 15 SSE 1021,0 30
18.04.2018 13:00:00 28,0 11,0 18 10 S - 10
18.04.2018 12:00:00 25,0 10,0 5 3 N - 10
18.04.2018 11:00:00 22,7 10,2 8 4 N 1022,2 30
18.04.2018 10:00:00 19,0 14,0 2 1 - - 10
18.04.2018 09:00:00 14,0 11,0 2 1 - - 10
18.04.2018 08:00:00 10,6 9,4 4 2 - 1022,7 10
18.04.2018 07:00:00 10,0 9,0 5 3 SSW - 10
18.04.2018 06:00:00 10,0 9,0 4 2 - - 10
18.04.2018 05:00:00 11,0 10,0 4 2 - - 10
18.04.2018 04:00:00 11,0 10,0 4 2 - - 10
18.04.2018 03:00:00 11,0 10,0 4 2 SSW - 10
18.04.2018 02:00:00 12,0 10,0 4 2 - - 10
18.04.2018 01:00:00 12,0 11,0 2 1 - - 10
18.04.2018 00:00:00 13,0 11,0 4 2 - - 10
17.04.2018 23:00:00 14,0 11,0 5 3 SSW - 10
17.04.2018 22:00:00 16,0 11,0 4 2 - - 10
17.04.2018 21:00:00 17,0 11,0 2 1 - - 10
17.04.2018 20:00:00 18,6 9,9 5 3 NNE 1022,8 10
17.04.2018 19:00:00 19,0 9,0 9 5 N - 10

tt = Température de l'air
td = dewpoint
ff = Vitesse du vent
dd = Direction du vent
ppp = reduced air pressure
vv = visibility

stations d'obs. à proximité